User: anonymous
Location: NC_16_and_73
(35.4490°N, 81.0150°W)
Time: 05:51:27
(UTC-04:00)
Language:

Cosmos-2242 - Orbit

View from above orbital plane
View from above orbital plane
View from above satellite
View from above satellite

Ground track
Ground track

The orbit data is extracted from the following two-line orbital elements,

1 22626U 93024A   14203.91239524  .00000282  00000-0  29421-4 0  1504
2 22626 082.5254 320.4689 0020229 041.4433 318.8313 14.85943901148578
Epoch (UTC): 22 July 2014 21:53:50
Eccentricity: 0.0020229
inclination: 82.5254°
perigee height: 596 km
apogee height: 625 km
right ascension of ascending node: 320.4689°
argument of perigee: 41.4433°
revolutions per day: 14.85943901
mean anomaly at epoch: 318.8313°
orbit number at epoch: 14857

The dashed part of the orbit path shows where the satellite is in the earth's shadow,  

DLR